Wind_Speed
12 13 13 12 11 9 8 7 9 9 7 5 3 3 3 4 6 6 4 1 1 2 1 2 1 1 1 1 1 2 4 1 4 4 4 3 3 6 7 9 12 11 18 23 21
14 15 14 13 12 10 9 8 9 8 7 5 4 3 3 4 6 8 4 4 1 1 0 1 1 2 1 2 1 3 3 7 5 4 5 6 7 8 5 11 13 17 18 18 20
19 16 16 15 14 12 10 9 10 8 7 5 4 4 3 3 4 6 9 6 2 1 2 1 1 2 0 1 2 3 5 4 7 13 11 8 7 7 4 6 18 20 20 18 17
17 17 17 16 14 12 11 11 11 8 7 6 4 4 3 2 4 2 8 9 5 2 2 2 2 1 1 1 2 2 8 8 7 6 4 5 5 5 12 24 19 19 15 16 15
18 20 18 16 14 13 12 12 11 8 7 6 4 5 4 3 4 2 6 8 4 3 2 3 4 1 1 2 2 4 4 7 12 13 13 14 13 9 19 17 7 9 17 18 21
19 19 17 15 14 13 12 13 11 8 7 6 5 5 4 3 4 3 7 5 4 4 4 4 3 3 3 3 3 2 8 16 13 10 8 2 3 1 1 9 12 18 13 15 20
18 17 16 15 14 13 12 13 10 8 7 6 6 5 7 9 4 4 6 6 6 7 6 6 5 4 1 1 3 5 7 7 1 2 1 2 4 5 6 12 15 11 13 13 16
17 15 15 14 13 13 13 12 9 7 7 7 6 6 7 8 9 12 10 9 8 7 5 4 3 3 3 1 4 4 3 5 3 6 1 1 8 5 5 18 9 11 16 20 21
16 14 13 13 12 12 13 11 9 8 7 6 5 5 6 7 12 13 11 10 7 6 4 4 2 2 1 4 4 6 2 2 8 7 2 1 8 1 10 10 3 8 13 18 23
14 13 12 11 11 12 11 9 8 8 7 5 6 4 11 4 7 9 10 10 6 4 3 3 1 3 3 3 3 2 3 3 5 4 5 4 10 10 17 4 7 7 12 19 25
13 12 12 12 13 13 11 7 4 3 12 9 5 6 0 7 5 6 8 10 7 3 2 2 3 5 7 6 4 2 2 4 5 4 3 2 7 8 8 11 9 9 14 18 22
14 14 14 14 14 13 12 8 5 2 6 16 21 14 11 3 4 8 10 8 6 5 3 4 5 8 3 4 3 3 2 5 5 2 1 5 7 5 5 3 5 7 12 15 19
15 15 15 14 13 13 13 12 6 4 3 6 14 19 24 19 7 8 12 8 4 4 5 6 3 5 4 3 3 3 4 4 5 5 1 5 5 3 2 5 6 7 9 14 17
17 17 16 13 11 11 12 11 8 4 3 5 3 4 11 12 5 13 14 6 3 6 5 5 3 4 2 4 6 2 4 3 2 2 2 3 3 4 1 3 3 3 8 12 14
17 17 16 15 6 12 7 8 10 4 2 1 2 4 9 11 8 2 12 7 7 6 5 6 3 3 2 4 6 5 0 0 1 3 3 2 3 5 1 5 4 3 5 9 12
18 18 17 16 9 9 12 12 10 5 5 2 3 4 5 2 2 5 4 5 3 4 1 6 2 2 4 1 2 5 2 4 3 3 1 1 3 4 4 5 4 5 5 7 7
18 18 19 17 13 14 15 14 4 3 2 5 4 4 2 4 3 3 4 4 5 3 4 2 2 1 2 2 2 4 4 4 4 3 3 1 2 7 3 3 7 11 8 6 5
18 19 19 17 15 16 16 4 3 3 5 2 4 3 6 6 2 3 4 1 4 3 2 3 3 4 1 1 5 2 5 4 3 2 4 3 5 3 4 6 8 10 7 5 3
18 19 20 19 17 20 13 3 7 7 4 7 3 3 3 3 4 3 6 5 7 10 7 4 3 1 3 2 2 2 2 3 5 1 1 3 6 6 3 4 7 7 3 2 3
18 17 20 21 17 19 4 5 4 4 2 2 6 4 6 4 4 6 6 3 3 9 2 4 1 1 1 2 4 2 5 3 2 2 4 4 5 4 4 6 5 4 3 1 3
18 10 15 22 19 12 5 7 5 8 4 4 5 3 3 5 7 5 4 3 3 3 4 4 3 1 2 4 6 1 0 5 3 3 4 2 5 5 9 7 6 6 2 6 6
15 3 18 27 6 3 5 6 5 3 4 2 4 4 6 5 5 4 6 5 6 10 7 3 4 3 7 1 1 2 4 5 4 4 1 2 6 4 8 8 5 6 6 6 3
11 5 19 29 4 3 2 3 4 3 3 4 4 4 2 5 2 4 3 1 5 5 6 6 0 2 6 4 1 3 4 3 4 3 7 5 5 1 4 4 2 5 9 5 1
10 3 5 15 2 6 5 4 5 5 3 3 2 3 2 2 2 2 2 1 1 3 3 7 3 6 6 5 4 4 4 5 5 3 4 7 5 5 7 8 8 7 7 1 7
9 6 8 5 5 4 5 7 7 6 6 6 1 6 6 4 1 4 3 1 1 4 3 4 5 4 5 5 3 4 6 7 8 7 8 12 13 8 8 8 8 10 3 4 7
10 6 7 6 10 10 6 7 9 4 7 5 5 7 6 8 9 7 5 3 5 2 4 2 3 4 3 1 5 5 9 10 12 12 11 9 16 6 5 8 9 5 1 5 7
14 9 5 7 5 7 6 7 9 7 8 9 10 5 5 10 15 9 8 2 4 8 7 5 6 3 5 3 4 7 8 13 3 4 7 9 8 8 5 8 7 4 1 9 8
Wind_Direction
245 235 235 239 232 236 242 238 221 225 232 236 251 257 255 232 216 219 209 180 111 40 89 123 153 278 359 107 66 98 63 234 248 188 266 273 16 318 294 268 282 262 269 285 287
241 239 238 237 236 232 237 231 213 226 235 238 254 253 253 249 237 227 210 201 176 25 344 308 323 303 214 148 177 94 108 224 213 208 242 283 292 298 286 281 280 285 303 290 289
240 236 235 237 236 234 228 225 207 221 240 241 257 271 263 269 246 247 222 208 233 303 319 313 325 319 248 239 191 162 192 212 251 259 269 280 275 276 239 282 283 302 316 305 292
235 235 233 233 232 232 231 216 206 216 237 245 260 275 271 225 180 210 219 217 226 248 311 304 309 214 160 266 228 314 247 236 272 278 245 242 268 260 234 271 297 306 316 311 298
230 233 231 231 234 229 229 215 204 210 233 239 257 271 266 242 247 289 190 191 227 229 296 297 295 218 225 200 249 204 264 263 272 279 277 274 257 254 269 302 326 331 324 320 293
226 229 230 231 234 232 222 211 207 208 228 235 247 266 253 241 243 240 193 206 256 256 292 293 274 265 253 227 184 278 278 283 288 267 275 242 282 265 35 4 348 325 328 326 342
226 227 229 230 229 228 216 203 208 216 228 238 249 259 254 246 211 202 199 230 246 279 288 291 273 249 198 268 298 308 324 323 323 52 348 222 309 239 347 357 5 16 11 14 20
225 227 228 230 224 218 206 195 206 219 236 245 259 256 255 249 234 241 237 242 254 267 281 282 253 241 224 308 360 26 48 359 322 338 113 119 277 271 338 351 15 35 43 44 40
224 222 223 223 212 203 195 195 208 220 234 249 261 241 260 239 237 238 234 235 234 244 256 258 252 191 124 81 12 16 295 306 316 18 353 53 277 247 326 328 86 53 45 47 49
219 216 216 210 198 190 195 200 216 229 233 232 236 248 240 229 227 230 217 216 223 218 236 247 143 77 44 89 225 264 309 276 254 297 355 278 268 302 319 210 141 73 55 53 49
215 212 209 198 192 193 195 198 198 233 219 213 197 202 161 215 211 210 197 195 194 191 205 18 61 228 223 191 148 182 209 261 255 280 329 305 294 304 10 130 115 70 56 55 53
212 207 204 195 195 196 197 195 211 179 258 236 241 239 236 213 202 201 185 177 165 197 115 13 250 240 186 161 185 176 271 279 284 248 94 355 307 324 45 77 94 74 54 53 56
207 203 201 197 200 203 209 210 223 223 256 252 233 236 234 228 228 213 194 185 153 155 189 176 237 109 155 191 171 212 207 219 230 332 87 331 331 348 33 92 98 87 63 61 59
200 198 196 192 205 207 221 204 201 218 55 274 204 219 198 193 231 218 200 186 141 200 170 225 268 232 167 222 140 306 203 182 260 54 262 22 268 282 222 136 81 90 77 77 74
200 194 192 187 187 188 190 183 188 170 6 217 139 173 174 170 142 133 193 202 166 177 117 256 201 205 168 209 161 207 83 113 169 115 49 311 94 262 304 211 186 197 106 91 84
198 193 191 190 188 172 164 153 148 52 256 161 151 193 125 142 103 124 143 159 131 149 157 234 277 242 222 76 147 124 103 53 62 97 30 251 126 279 186 200 173 204 157 118 108
196 194 194 188 184 170 160 152 63 153 330 188 181 182 151 156 134 129 150 158 162 119 231 230 217 295 169 121 24 83 56 327 349 9 219 107 53 246 287 243 194 183 162 155 156
195 196 195 189 182 171 167 60 161 237 220 110 127 105 177 156 202 138 112 206 224 142 131 167 309 180 176 221 180 136 152 158 265 261 281 293 237 248 291 308 188 149 153 150 165
192 192 195 186 182 178 169 130 205 209 209 153 112 138 230 196 149 126 189 212 208 176 180 150 277 33 50 21 79 152 173 155 105 40 28 266 294 322 25 40 135 142 129 203 209
191 188 195 185 179 177 117 225 222 219 233 153 171 150 179 199 148 159 188 208 224 194 133 192 111 57 66 75 53 151 153 78 14 220 274 296 283 236 198 188 171 165 193 303 148
177 170 190 181 176 175 182 220 233 247 239 173 190 144 187 182 168 185 198 258 182 141 169 140 110 341 60 201 187 105 200 51 118 141 192 278 268 217 188 190 175 202 223 151 117
175 149 173 170 150 167 170 186 196 234 202 205 125 174 179 164 167 209 211 227 184 150 156 188 131 183 211 199 152 184 191 156 135 227 158 143 271 293 175 165 179 207 174 161 107
169 119 169 174 181 208 223 213 214 171 213 172 191 196 204 162 166 197 197 13 175 152 159 181 158 45 333 4 8 226 193 140 108 90 197 157 258 167 170 165 292 229 195 185 354
159 123 138 205 226 157 154 195 202 209 218 177 154 124 119 169 213 160 224 157 150 137 135 135 146 170 199 209 150 195 197 181 153 157 196 221 239 205 227 232 282 218 189 217 355
164 207 177 186 219 188 179 185 166 198 210 196 220 197 169 184 204 217 206 159 49 134 97 134 204 183 250 220 197 214 219 194 200 216 207 257 222 216 217 227 215 166 153 349 346
175 168 164 174 165 169 172 202 178 217 152 219 188 208 182 177 187 201 159 188 206 73 146 8 205 157 281 254 207 252 241 241 232 246 257 267 262 189 239 150 146 160 209 342 345
203 181 171 162 134 162 199 188 198 168 216 208 200 140 169 226 225 222 197 191 168 155 174 150 138 125 256 344 335 296 224 226 210 212 224 224 242 158 154 160 171 171 351 348 341
Height
1528 1530 1532 1533 1533 1534 1534 1534 1535 1536 1537 1537 1537 1537 1537 1537 1537 1538 1539 1540 1540 1540 1540 1540 1540 1540 1540 1541 1541 1541 1552 1558 1551 1549 1543 1540 1539 1538 1537 1536 1535 1534 1531 1530 1529
1528 1529 1530 1532 1533 1532 1533 1533 1534 1535 1536 1536 1536 1536 1536 1536 1537 1537 1539 1539 1539 1539 1540 1540 1540 1540 1540 1540 1541 1543 1556 1551 1543 1542 1540 1537 1538 1536 1537 1534 1531 1530 1529 1527 1525
1528 1528 1529 1530 1531 1531 1531 1532 1533 1534 1535 1535 1536 1536 1536 1536 1537 1537 1537 1538 1539 1539 1540 1540 1539 1539 1540 1540 1540 1541 1547 1541 1538 1539 1539 1537 1535 1533 1533 1531 1527 1526 1525 1524 1522
1524 1526 1527 1528 1528 1529 1529 1530 1531 1532 1534 1535 1535 1536 1535 1536 1541 1535 1536 1538 1539 1539 1539 1539 1539 1538 1539 1541 1541 1543 1538 1538 1535 1534 1535 1535 1532 1530 1529 1523 1525 1524 1523 1521 1520
1521 1525 1525 1525 1526 1526 1528 1528 1530 1531 1532 1534 1534 1535 1535 1536 1535 1535 1535 1537 1538 1539 1539 1539 1539 1539 1539 1538 1539 1539 1536 1535 1533 1533 1531 1531 1529 1530 1523 1524 1523 1523 1520 1518 1515
1519 1522 1522 1522 1524 1525 1525 1527 1529 1530 1531 1532 1533 1533 1534 1536 1534 1534 1535 1536 1537 1538 1538 1538 1538 1538 1537 1537 1538 1536 1535 1532 1529 1529 1529 1529 1528 1528 1523 1522 1522 1520 1517 1515 1510
1516 1517 1518 1520 1522 1523 1523 1525 1528 1529 1529 1530 1531 1532 1532 1533 1532 1533 1534 1535 1536 1537 1537 1537 1536 1538 1537 1536 1536 1536 1537 1531 1527 1528 1528 1529 1527 1526 1523 1522 1519 1518 1516 1513 1510
1513 1514 1516 1519 1519 1520 1522 1524 1526 1527 1528 1529 1530 1531 1530 1530 1530 1531 1532 1533 1534 1535 1536 1536 1534 1535 1536 1535 1536 1538 1541 1545 1530 1529 1528 1529 1537 1522 1523 1521 1520 1519 1517 1515 1512
1510 1511 1514 1516 1516 1518 1521 1522 1524 1525 1526 1527 1529 1530 1528 1527 1528 1529 1530 1532 1532 1533 1534 1535 1534 1534 1536 1538 1545 1545 1550 1544 1539 1530 1530 1529 1531 1522 1522 1522 1521 1520 1518 1517 1514
1507 1508 1511 1513 1514 1517 1520 1521 1522 1524 1524 1526 1527 1531 1526 1525 1525 1526 1527 1529 1531 1532 1534 1535 1534 1535 1539 1541 1554 1545 1547 1544 1545 1532 1531 1531 1530 1522 1519 1518 1521 1521 1520 1518 1516
1504 1506 1510 1511 1513 1516 1518 1520 1524 1523 1522 1521 1519 1520 1522 1523 1525 1525 1526 1527 1529 1532 1535 1534 1539 1542 1536 1534 1534 1538 1543 1547 1540 1533 1533 1531 1533 1524 1518 1518 1521 1522 1520 1520 1518
1503 1505 1508 1509 1511 1514 1515 1516 1518 1519 1519 1517 1517 1518 1520 1522 1524 1523 1525 1528 1528 1534 1533 1539 1542 1530 1530 1531 1534 1538 1541 1543 1536 1533 1534 1534 1531 1525 1522 1522 1522 1522 1522 1521 1521
1500 1503 1506 1507 1510 1512 1513 1515 1517 1517 1518 1512 1510 1512 1516 1522 1521 1521 1523 1524 1526 1532 1534 1540 1533 1529 1529 1531 1533 1535 1539 1538 1538 1534 1534 1536 1531 1528 1523 1523 1523 1523 1523 1522 1523
1497 1500 1504 1505 1512 1508 1513 1511 1515 1518 1521 1513 1508 1509 1513 1516 1519 1517 1520 1523 1525 1529 1533 1535 1529 1528 1529 1529 1531 1537 1533 1532 1533 1539 1545 1539 1546 1531 1524 1525 1525 1524 1523 1524 1524
1494 1497 1501 1504 1504 1507 1511 1510 1515 1517 1536 1509 1508 1511 1511 1513 1515 1515 1517 1520 1524 1526 1530 1532 1527 1528 1526 1525 1525 1530 1532 1532 1534 1541 1543 1540 1547 1531 1527 1526 1525 1524 1523 1524 1524
1491 1494 1498 1501 1503 1506 1508 1511 1515 1528 1533 1509 1509 1512 1511 1511 1512 1515 1517 1520 1522 1524 1525 1528 1525 1524 1523 1525 1524 1525 1532 1537 1544 1547 1549 1538 1544 1534 1529 1524 1523 1522 1522 1524 1524
1489 1492 1497 1500 1502 1506 1510 1513 1524 1533 1508 1511 1510 1511 1511 1511 1512 1513 1518 1521 1526 1534 1533 1524 1524 1522 1523 1526 1527 1526 1538 1551 1545 1548 1545 1540 1546 1529 1520 1519 1519 1519 1521 1523 1524
1486 1490 1493 1497 1500 1504 1508 1512 1525 1513 1512 1503 1506 1510 1512 1510 1511 1514 1519 1524 1520 1522 1531 1530 1532 1524 1523 1524 1527 1529 1535 1551 1543 1551 1551 1545 1542 1524 1519 1516 1515 1519 1521 1522 1523
1485 1488 1491 1495 1499 1502 1508 1522 1517 1511 1502 1502 1504 1509 1510 1508 1511 1513 1520 1521 1514 1517 1526 1531 1526 1522 1523 1524 1525 1532 1539 1537 1552 1558 1557 1545 1533 1522 1518 1517 1518 1519 1520 1520 1521
1482 1486 1489 1493 1498 1501 1507 1511 1507 1500 1497 1498 1504 1505 1513 1511 1513 1515 1519 1510 1509 1511 1511 1517 1526 1524 1525 1525 1527 1528 1532 1541 1549 1545 1548 1547 1544 1531 1522 1520 1517 1518 1518 1519 1520
1481 1485 1487 1490 1496 1500 1507 1508 1500 1497 1497 1498 1500 1504 1506 1509 1511 1515 1512 1507 1506 1509 1512 1516 1521 1527 1525 1529 1530 1534 1535 1542 1545 1551 1549 1553 1538 1520 1519 1517 1516 1516 1516 1518 1519
1478 1482 1483 1488 1495 1497 1502 1497 1494 1494 1496 1496 1495 1499 1505 1506 1510 1512 1509 1507 1504 1505 1513 1514 1525 1532 1527 1525 1524 1526 1528 1533 1542 1545 1556 1554 1542 1511 1513 1514 1515 1515 1516 1517 1518
1476 1479 1482 1485 1493 1495 1492 1491 1492 1493 1494 1495 1495 1498 1498 1501 1504 1506 1505 1504 1504 1504 1509 1512 1527 1535 1530 1528 1526 1525 1527 1529 1536 1541 1550 1548 1532 1512 1514 1514 1515 1514 1515 1516 1517
1472 1478 1481 1485 1485 1485 1488 1489 1490 1489 1491 1492 1495 1496 1498 1500 1499 1502 1503 1504 1505 1503 1505 1508 1522 1522 1531 1520 1521 1524 1522 1526 1526 1540 1533 1531 1515 1513 1513 1513 1512 1512 1514 1515 1514
1465 1470 1470 1480 1482 1482 1482 1482 1486 1490 1489 1490 1494 1495 1497 1502 1502 1503 1502 1504 1505 1503 1506 1511 1518 1521 1517 1515 1516 1515 1516 1520 1524 1518 1520 1502 1510 1508 1506 1507 1508 1510 1512 1513 1513
1463 1465 1468 1470 1471 1479 1481 1483 1484 1486 1487 1490 1493 1490 1494 1498 1497 1501 1501 1504 1502 1505 1507 1512 1517 1519 1517 1515 1519 1520 1515 1512 1511 1508 1511 1506 1500 1499 1501 1502 1506 1508 1510 1510 1509
1458 1460 1461 1467 1471 1475 1476 1475 1478 1480 1482 1482 1485 1489 1493 1489 1489 1491 1493 1495 1497 1501 1508 1513 1519 1524 1523 1521 1518 1517 1502 1497 1503 1504 1502 1505 1494 1496 1500 1502 1504 1506 1506 1505 1506